EW9926 Weather Reports


time (UTC)temp
F
wind
direction
speed
knots
gust
knots
rain 1hr
in
rain 24hr
in
rain mn
in
humidity
%
barometer
mb
20260510142555 62 255 0.0 2.6 0.00 0.18 0.00 83 1013.0
20260510142054 62 234 0.9 2.6 0.00 0.18 0.00 83 1013.0
20260510141553 61 311 0.9 2.6 0.00 0.18 0.00 84 1013.0
20260510141051 61 285 0.9 2.6 0.00 0.18 0.00 85 1013.0
20260510140551 60 262 0.0 2.6 0.00 0.18 0.00 87 1012.9
20260510140049 60 262 0.9 2.6 0.00 0.18 0.00 87 1013.0
20260510135548 59 262 0.9 1.7 0.00 0.18 0.00 88 1012.9
20260510135047 59 220 0.9 1.7 0.00 0.18 0.00 87 1012.9
20260510134552 58 220 0.9 1.7 0.00 0.18 0.00 90 1012.8
20260510134045 58 206 0.0 1.7 0.00 0.18 0.00 90 1012.8
20260510133546 58 206 0.0 1.7 0.00 0.18 0.00 91 1012.8
20260510133042 57 206 0.0 1.7 0.00 0.18 0.00 91 1012.9
20260510132542 57 206 0.9 1.7 0.00 0.18 0.00 91 1013.0
20260510132040 57 172 0.0 2.6 0.00 0.18 0.00 92 1012.9
20260510131540 57 142 0.0 1.7 0.00 0.18 0.00 93 1012.9
20260510131039 56 142 0.0 1.7 0.00 0.18 0.00 94 1012.8
20260510130538 56 142 0.0 1.7 0.00 0.18 0.00 94 1012.9
20260510130037 56 142 0.0 1.7 0.00 0.18 0.00 94 1013.0
20260510125536 55 142 0.0 1.7 0.00 0.18 0.00 95 1013.1
20260510125036 55 142 0.0 0.9 0.00 0.18 0.00 95 1013.2
20260510124537 55 142 0.0 1.7 0.00 0.18 0.00 95 1013.2
20260510124033 55 142 0.0 1.7 0.00 0.18 0.00 95 1013.1
20260510123531 54 140 0.0 0.9 0.00 0.18 0.00 95 1013.0
20260510123032 54 140 0.0 0.9 0.00 0.18 0.00 95 1012.9
20260510122529 54 140 0.0 0.9 0.00 0.18 0.00 95 1012.7
20260510122030 54 140 0.0 1.7 0.00 0.18 0.00 95 1012.6
20260510121527 53 140 0.0 1.7 0.00 0.18 0.00 95 1012.6
20260510121026 53 140 0.9 1.7 0.00 0.18 0.00 95 1012.4
20260510120526 53 151 0.9 2.6 0.00 0.18 0.00 95 1012.4
20260510120023 52 151 0.9 2.6 0.00 0.18 0.00 95 1012.4
20260510115522 52 89 0.0 3.5 0.00 0.18 0.00 95 1012.3
20260510115019 52 110 0.9 3.5 0.00 0.18 0.00 95 1012.1
20260510114519 52 155 0.9 4.3 0.00 0.18 0.00 95 1011.9
20260510114018 52 150 0.9 3.5 0.00 0.18 0.00 95 1011.8
20260510113516 51 131 0.9 2.6 0.00 0.18 0.00 95 1012.0
20260510113020 51 148 0.9 3.5 0.00 0.18 0.00 95 1012.0
20260510112517 51 148 0.9 3.5 0.00 0.18 0.00 95 1011.9
20260510112018 51 158 1.7 2.6 0.00 0.18 0.00 95 1011.9
20260510111514 51 104 0.0 1.7 0.00 0.18 0.00 95 1012.0
20260510111014 51 140 0.0 1.7 0.00 0.18 0.00 95 1012.1
20260510110517 51 140 0.0 2.6 0.00 0.18 0.00 95 1012.1
20260510110017 51 140 0.9 2.6 0.00 0.18 0.00 95 1012.0
20260510105514 50 122 0.0 1.7 0.00 0.18 0.00 95 1012.0
20260510105013 50 122 0.0 0.9 0.00 0.18 0.00 95 1012.0
20260510104512 50 122 0.0 0.9 0.00 0.18 0.00 95 1011.9
20260510104012 50 122 0.0 0.0 0.00 0.18 0.00 95 1011.9
20260510103512 50 122 0.0 0.9 0.00 0.18 0.00 94 1011.8
20260510103012 50 122 0.0 0.9 0.00 0.18 0.00 95 1011.9
20260510102511 50 122 0.0 0.0 0.00 0.18 0.00 95 1011.8
20260510102010 50 122 0.0 0.0 0.00 0.18 0.00 94 1011.8
20260510101513 50 122 0.0 0.0 0.00 0.18 0.00 94 1011.7
20260510101011 50 122 0.0 0.9 0.00 0.18 0.00 94 1011.7
20260510100510 50 122 0.0 1.7 0.00 0.18 0.00 94 1011.7
20260510100012 50 122 0.0 1.7 0.00 0.18 0.00 94 1011.7
20260510095510 50 122 0.0 1.7 0.00 0.18 0.00 94 1011.6
20260510095009 50 122 0.0 0.9 0.00 0.18 0.00 94 1011.4
20260510094512 50 122 0.0 1.7 0.00 0.18 0.00 94 1011.5
20260510094009 50 122 0.0 1.7 0.00 0.18 0.00 94 1011.5
20260510093509 50 64 0.0 0.9 0.00 0.18 0.00 94 1011.6
20260510093010 50 64 0.0 0.9 0.00 0.18 0.00 94 1011.4
20260510092509 50 64 0.0 0.9 0.00 0.18 0.00 94 1011.2
20260510092009 51 64 0.0 1.7 0.00 0.18 0.00 94 1011.2
20260510091508 51 64 0.0 1.7 0.00 0.18 0.00 94 1011.1
20260510091008 51 64 0.0 0.9 0.00 0.18 0.00 94 1011.2
20260510090509 51 64 0.0 0.9 0.00 0.18 0.00 94 1011.4
20260510090009 51 64 0.0 1.7 0.00 0.18 0.00 94 1011.5
20260510085508 51 64 0.0 1.7 0.00 0.18 0.00 94 1011.4
20260510085007 51 64 0.0 0.9 0.00 0.18 0.00 94 1011.7
20260510084507 51 64 0.0 0.9 0.00 0.18 0.00 94 1011.6
20260510084003 50 64 0.0 0.9 0.00 0.18 0.00 95 1011.6
20260510083502 50 64 0.0 1.7 0.00 0.18 0.00 94 1011.6
20260510083108 50 64 0.0 1.7 0.00 0.18 0.00 95 1011.5
20260510082559 50 63 0.0 1.7 0.00 0.18 0.00 95 1011.7
20260510082059 50 64 0.0 1.7 0.00 0.18 0.00 94 1011.4
20260510081559 50 32 0.9 1.7 0.00 0.18 0.00 94 1011.7
20260510081058 50 109 0.0 1.7 0.00 0.18 0.00 94 1011.3
20260510080559 50 38 0.9 2.6 0.00 0.18 0.00 94 1011.6
20260510080100 50 320 0.0 2.6 0.00 0.18 0.00 94 1011.7
20260510075557 50 320 0.0 2.6 0.00 0.18 0.00 94 1011.2
20260510075100 49 330 1.7 2.6 0.00 0.18 0.00 94 1011.3
20260510074618 49 113 0.0 0.0 0.00 0.18 0.00 94 1010.8
20260510074056 49 113 0.0 0.0 0.00 0.18 0.00 94 1010.8
20260510073556 49 113 0.0 0.0 0.00 0.18 0.00 94 1010.7
20260510073055 50 112 0.0 0.0 0.00 0.18 0.00 94 1010.6
20260510072555 50 112 0.0 0.0 0.00 0.18 0.00 94 1010.7
20260510072058 50 112 0.0 0.0 0.00 0.18 0.00 94 1010.7
20260510071600 50 112 0.0 0.0 0.00 0.18 0.00 94 1010.7
20260510071056 50 113 0.0 0.0 0.00 0.18 0.00 94 1010.7
20260510070554 50 112 0.0 0.0 0.00 0.18 0.00 94 1010.8
20260510070054 50 112 0.0 0.0 0.00 0.18 0.00 94 1010.8
20260510065554 50 113 0.0 0.0 0.00 0.18 0.00 94 1010.9
20260510065054 49 112 0.0 0.0 0.00 0.18 0.00 94 1010.9
20260510064608 49 112 0.0 0.0 0.00 0.18 0.00 94 1010.9
20260510064051 49 113 0.0 0.0 0.00 0.18 0.00 94 1011.0
20260510063551 49 112 0.0 0.0 0.00 0.18 0.00 94 1010.9
20260510063100 49 112 0.0 0.0 0.00 0.18 0.00 94 1010.9
20260510062551 49 112 0.0 0.0 0.00 0.18 0.00 94 1010.8
20260510062050 49 112 0.0 0.0 0.00 0.18 0.00 94 1010.8
20260510061551 49 112 0.0 0.0 0.00 0.18 0.00 94 1010.6
20260510061051 48 112 0.0 0.0 0.00 0.18 0.00 94 1010.5
20260510060550 48 112 0.0 0.0 0.00 0.18 0.00 94 1010.4
20260510060056 48 112 0.0 0.0 0.00 0.18 0.00 93 1010.5
20260510055548 48 112 0.0 0.0 0.00 0.18 0.00 93 1010.5
20260510055048 48 112 0.0 0.0 0.00 0.18 0.00 93 1010.5
20260510054547 48 112 0.0 0.0 0.00 0.18 0.00 93 1010.6
20260510054046 48 112 0.0 0.0 0.00 0.18 0.00 93 1010.7
20260510053546 48 112 0.0 0.0 0.00 0.18 0.00 93 1010.6
20260510053046 48 112 0.0 0.0 0.00 0.18 0.00 93 1010.7
20260510052547 48 112 0.0 0.0 0.00 0.18 0.00 93 1010.7
20260510052046 48 112 0.0 0.0 0.00 0.18 0.00 93 1010.7
20260510051555 48 112 0.0 0.0 0.00 0.18 0.00 93 1010.7
20260510051044 48 112 0.0 0.0 0.00 0.18 0.00 93 1010.7
20260510050545 48 112 0.0 0.0 0.00 0.18 0.00 92 1010.8
20260510050043 48 112 0.0 0.0 0.00 0.18 0.00 92 1010.7
20260510045543 48 112 0.0 0.0 0.00 0.18 0.00 92 1010.8
20260510045042 49 112 0.0 0.0 0.00 0.18 0.00 92 1010.8
20260510044542 49 112 0.0 0.0 0.00 0.18 0.00 92 1010.9
20260510044043 49 112 0.0 0.0 0.00 0.18 0.00 92 1010.9
20260510043539 49 112 0.0 0.0 0.00 0.18 0.00 92 1010.8
20260510043046 49 112 0.0 0.0 0.00 0.18 0.00 92 1011.0
20260510042538 49 112 0.0 0.0 0.00 0.18 0.00 92 1011.0
20260510042038 49 112 0.0 0.0 0.00 0.18 0.00 92 1010.9
20260510041552 49 112 0.0 0.0 0.00 0.18 0.00 92 1011.0
20260510041036 49 112 0.0 0.0 0.00 0.18 0.00 92 1011.0
20260510040536 50 112 0.0 0.0 0.00 0.18 0.00 92 1010.9
20260510040033 50 112 0.0 0.0 0.00 0.18 0.00 92 1011.0
20260510035533 50 112 0.0 0.0 0.00 0.18 0.18 92 1010.9
20260510035033 50 112 0.0 0.0 0.00 0.18 0.18 92 1010.9
20260510034532 50 112 0.0 0.0 0.00 0.18 0.18 92 1010.9
20260510034031 50 112 0.0 0.0 0.00 0.18 0.18 92 1010.9
20260510033532 50 112 0.0 0.0 0.00 0.18 0.18 92 1010.8
20260510033030 50 112 0.0 0.0 0.00 0.18 0.18 92 1010.8
20260510032529 51 112 0.0 0.0 0.00 0.18 0.18 92 1010.8
20260510032028 51 112 0.0 0.0 0.00 0.18 0.18 92 1010.7
20260510031528 51 112 0.0 0.0 0.00 0.18 0.18 92 1010.7
20260510031028 51 112 0.0 0.0 0.00 0.18 0.18 92 1010.7
20260510030531 51 112 0.0 0.0 0.00 0.18 0.18 93 1010.7
20260510030027 51 112 0.0 0.0 0.00 0.18 0.18 93 1010.7
20260510025528 51 112 0.0 0.0 0.00 0.18 0.18 92 1010.8
20260510025027 51 112 0.0 0.0 0.00 0.18 0.18 92 1010.7
20260510024527 51 112 0.0 0.0 0.00 0.18 0.18 92 1010.6
20260510024026 51 112 0.0 0.0 0.00 0.18 0.18 92 1010.5
20260510023526 51 112 0.0 0.0 0.00 0.18 0.18 92 1010.5
20260510023026 51 112 0.0 0.0 0.00 0.18 0.18 92 1010.5
20260510022526 51 112 0.0 0.0 0.00 0.18 0.18 92 1010.5
20260510022025 51 112 0.0 0.0 0.00 0.18 0.18 92 1010.5
20260510021525 51 112 0.0 0.0 0.00 0.18 0.18 92 1010.5
20260510021024 51 112 0.0 0.0 0.00 0.18 0.18 92 1010.6
20260510020525 51 112 0.0 0.0 0.00 0.18 0.18 92 1010.5
20260510020024 51 112 0.0 0.0 0.00 0.18 0.18 92 1010.5
20260510015524 52 112 0.0 0.9 0.00 0.18 0.18 92 1010.5
20260510015024 51 112 0.0 0.9 0.00 0.18 0.18 92 1010.4
20260510014524 51 112 0.0 0.0 0.00 0.18 0.18 92 1010.5
20260510014023 51 112 0.0 0.9 0.00 0.18 0.18 92 1010.4
20260510013523 51 112 0.0 0.9 0.00 0.18 0.18 91 1010.5
20260510013023 51 112 0.0 0.0 0.00 0.18 0.18 91 1010.5
20260510012521 51 112 0.0 0.0 0.00 0.18 0.18 91 1010.3
20260510012021 52 112 0.0 0.0 0.00 0.18 0.18 91 1010.3
20260510011532 52 112 0.0 0.0 0.00 0.18 0.18 91 1010.3
20260510011020 52 112 0.0 0.0 0.00 0.18 0.18 91 1010.3
20260510010520 52 112 0.0 0.0 0.00 0.18 0.18 91 1010.2
20260510010030 52 112 0.0 0.0 0.00 0.18 0.18 91 1010.1
20260510005520 52 112 0.0 0.9 0.00 0.18 0.18 91 1010.1
20260510005020 52 112 0.0 1.7 0.00 0.18 0.18 91 1010.0
20260510004519 53 112 0.0 1.7 0.00 0.18 0.18 90 1010.1
20260510004022 53 112 0.9 1.7 0.00 0.18 0.18 90 1010.0
20260510003520 53 112 0.0 1.7 0.00 0.18 0.18 90 1009.9
20260510003019 53 112 0.0 0.0 0.00 0.18 0.18 90 1009.9
20260510002519 53 112 0.0 1.7 0.00 0.18 0.18 90 1009.7
20260510002018 53 112 0.0 1.7 0.00 0.18 0.18 90 1009.7
20260510001523 53 112 0.0 1.7 0.00 0.18 0.18 90 1009.6
20260510001018 54 136 0.9 2.6 0.00 0.18 0.18 90 1009.6
20260510000519 54 119 0.9 2.6 0.00 0.18 0.18 89 1009.6
20260510000018 54 151 0.0 1.7 0.00 0.18 0.18 89 1009.7
20260509235518 54 151 0.9 2.6 0.00 0.18 0.18 89 1009.7
20260509235018 54 147 0.0 2.6 0.00 0.18 0.18 89 1009.7
20260509234518 55 141 0.9 2.6 0.00 0.18 0.18 89 1009.7
20260509234017 55 133 0.9 2.6 0.00 0.18 0.18 89 1009.7
20260509233517 55 160 0.9 2.6 0.00 0.18 0.18 89 1009.8
20260509233017 55 159 0.9 2.6 0.00 0.18 0.18 88 1009.8
20260509232517 55 152 0.9 2.6 0.00 0.18 0.18 88 1009.8
20260509232017 55 131 0.9 3.5 0.00 0.18 0.18 88 1009.8
20260509231527 56 135 0.9 3.5 0.00 0.18 0.18 87 1009.7
20260509231016 56 154 0.0 2.6 0.00 0.18 0.18 87 1009.7
20260509230516 56 155 0.9 2.6 0.00 0.18 0.18 86 1009.6
20260509230018 56 158 0.9 2.6 0.00 0.18 0.18 86 1009.6
20260509225519 56 159 0.9 2.6 0.00 0.18 0.18 87 1009.6
20260509225015 56 159 0.9 1.7 0.00 0.18 0.18 86 1009.7
20260509224515 56 159 0.0 1.7 0.00 0.18 0.18 86 1009.8
20260509224015 56 159 0.0 2.6 0.00 0.18 0.18 85 1009.7
20260509223515 56 159 0.9 2.6 0.00 0.18 0.18 85 1009.7
20260509223016 56 5 0.9 1.7 0.00 0.18 0.18 84 1009.7
20260509222514 56 327 0.0 0.9 0.00 0.18 0.18 84 1009.7
20260509222014 56 327 0.0 0.9 0.00 0.18 0.18 86 1009.7
20260509221528 56 324 0.0 0.9 0.00 0.18 0.18 87 1009.7
20260509221015 56 324 0.0 1.7 0.00 0.18 0.18 87 1009.6
20260509220514 56 324 0.0 1.7 0.00 0.18 0.18 88 1009.6
20260509220014 56 324 0.0 0.9 0.00 0.18 0.18 88 1009.5
20260509215514 56 322 0.0 1.7 0.00 0.18 0.18 87 1009.6
20260509215013 56 322 0.0 1.7 0.00 0.18 0.18 88 1009.7
20260509214515 56 323 0.0 0.9 0.00 0.18 0.18 90 1009.6
20260509214013 56 323 0.0 0.9 0.01 0.18 0.18 89 1009.5
20260509213513 55 323 0.0 0.9 0.01 0.18 0.18 88 1009.5
20260509213013 55 322 0.0 0.0 0.01 0.18 0.18 89 1009.9
20260509212517 55 322 0.0 0.9 0.01 0.18 0.18 89 1009.9
20260509212015 55 322 0.0 0.9 0.01 0.18 0.18 89 1009.8
20260509211512 55 322 0.0 0.9 0.01 0.18 0.18 90 1009.8
20260509211012 55 322 0.0 0.9 0.01 0.18 0.18 90 1009.8
20260509210512 55 322 0.0 0.0 0.01 0.18 0.18 90 1009.7
20260509210015 54 322 0.0 0.0 0.01 0.18 0.18 90 1009.7
20260509205511 54 322 0.0 0.0 0.02 0.18 0.18 90 1009.8
20260509205011 54 322 0.0 0.0 0.02 0.18 0.18 90 1009.8
20260509204509 54 322 0.0 0.9 0.02 0.18 0.18 90 1009.8
20260509204009 54 322 0.0 0.9 0.01 0.17 0.17 90 1009.9
20260509203509 54 322 0.0 0.9 0.02 0.17 0.17 90 1009.6
20260509203008 54 322 0.0 0.0 0.02 0.17 0.17 90 1009.8
20260509202508 54 322 0.0 0.9 0.03 0.17 0.17 90 1009.7
20260509202008 54 322 0.0 0.9 0.04 0.17 0.17 90 1009.8
20260509201506 54 322 0.0 0.9 0.04 0.17 0.17 90 1009.9
20260509201005 54 322 0.0 0.9 0.05 0.17 0.17 90 1009.8
20260509200504 54 322 0.0 0.9 0.05 0.17 0.17 90 1009.9
20260509200004 54 322 0.0 0.9 0.05 0.17 0.17 90 1010.1
20260509195506 54 322 0.0 0.9 0.04 0.16 0.16 90 1010.1
20260509195001 54 322 0.0 0.9 0.04 0.16 0.16 90 1010.2
20260509194501 54 322 0.0 0.9 0.05 0.16 0.16 90 1010.2
20260509194100 54 322 0.0 1.7 0.06 0.16 0.16 90 1010.4
20260509193600 54 322 0.0 1.7 0.06 0.15 0.15 90 1010.5
20260509193126 54 322 0.0 0.9 0.06 0.15 0.15 90 1010.5
20260509192558 54 322 0.0 1.7 0.06 0.14 0.14 90 1010.8
20260509192101 54 322 0.9 1.7 0.05 0.13 0.13 90 1010.8
20260509191614 54 322 0.0 2.6 0.06 0.13 0.13 90 1010.8
20260509191057 54 322 0.0 2.6 0.05 0.12 0.12 90 1010.9
20260509190557 54 322 0.9 2.6 0.06 0.12 0.12 90 1010.9
20260509190112 54 322 0.0 1.7 0.06 0.12 0.12 91 1011.0
20260509185557 54 321 0.0 1.7 0.07 0.12 0.12 91 1011.0
20260509185057 54 321 0.0 1.7 0.07 0.12 0.12 90 1011.0
20260509184556 54 321 0.0 1.7 0.06 0.11 0.11 90 1011.0
20260509184055 54 321 0.9 1.7 0.06 0.10 0.10 90 1011.1
20260509183555 54 321 0.0 2.6 0.05 0.09 0.09 89 1011.2
20260509183055 54 321 0.9 2.6 0.05 0.09 0.09 89 1011.2
20260509182555 54 321 0.9 2.6 0.05 0.08 0.08 89 1011.2
20260509182055 55 321 0.9 2.6 0.05 0.08 0.08 89 1011.2
20260509181556 55 321 0.0 1.7 0.04 0.07 0.07 89 1011.2
20260509181055 55 321 0.0 1.7 0.04 0.07 0.07 89 1011.2
20260509180555 55 321 0.0 1.7 0.04 0.06 0.06 89 1011.3
20260509180057 55 321 0.0 0.9 0.04 0.06 0.06 89 1011.2
20260509175554 55 321 0.0 0.9 0.03 0.05 0.05 88 1011.2
20260509175054 55 321 0.0 0.9 0.03 0.05 0.05 88 1011.2
20260509174553 55 321 0.0 1.7 0.04 0.05 0.05 88 1011.1
20260509174055 55 321 0.9 1.7 0.03 0.04 0.04 87 1011.0
20260509173552 55 321 0.9 1.7 0.03 0.04 0.04 86 1010.8
20260509173058 56 270 0.0 1.7 0.04 0.04 0.04 87 1010.8
20260509172554 56 270 0.0 1.7 0.03 0.03 0.03 86 1010.8
20260509172052 56 268 0.0 1.7 0.03 0.03 0.03 86 1011.0
20260509171605 56 268 0.0 0.9 0.03 0.03 0.03 85 1011.0
20260509171051 56 268 0.0 0.9 0.03 0.03 0.03 85 1011.1
20260509170551 56 268 0.0 1.7 0.02 0.02 0.02 84 1011.1
20260509170051 56 268 0.0 1.7 0.02 0.02 0.02 83 1011.2
20260509165550 57 268 0.0 1.7 0.02 0.02 0.02 83 1011.1
20260509165049 57 268 0.0 2.6 0.02 0.02 0.02 82 1011.0
20260509164551 57 268 0.9 2.6 0.01 0.01 0.01 81 1011.1
20260509164051 58 268 0.9 1.7 0.01 0.01 0.01 80 1011.1
20260509163551 58 268 0.9 3.5 0.01 0.01 0.01 79 1011.3
20260509163055 59 249 0.9 3.5 0.00 0.00 0.00 77 1011.4
20260509162551 59 262 0.9 2.6 0.00 0.00 0.00 75 1011.4
20260509162048 60 262 0.9 3.5 0.00 0.00 0.00 73 1011.2
20260509161548 60 263 0.9 3.5 0.00 0.00 0.00 74 1011.2
20260509161047 60 293 1.7 3.5 0.00 0.00 0.00 73 1011.3
20260509160548 60 259 1.7 5.2 0.00 0.00 0.00 71 1011.5
20260509160048 60 265 1.7 5.2 0.00 0.00 0.00 72 1011.8
20260509155547 61 265 2.6 4.3 0.00 0.00 0.00 67 1011.7
20260509155047 61 263 1.7 4.3 0.00 0.00 0.00 68 1011.5
20260509154547 62 272 1.7 4.3 0.00 0.00 0.00 66 1011.5
20260509154046 61 263 1.7 3.5 0.00 0.00 0.00 67 1011.6
20260509153545 61 253 1.7 3.5 0.00 0.00 0.00 70 1011.5
20260509153046 61 254 0.0 3.5 0.00 0.00 0.00 70 1011.5
20260509152544 61 259 1.7 4.3 0.00 0.00 0.00 72 1011.7
20260509152043 60 261 0.9 4.3 0.00 0.00 0.00 71 1011.7
20260509151542 60 259 1.7 3.5 0.00 0.00 0.00 71 1011.6
20260509151041 61 266 1.7 2.6 0.00 0.00 0.00 73 1011.5
20260509150539 60 272 0.9 2.6 0.00 0.00 0.00 74 1011.6
20260509150039 60 272 0.9 2.6 0.00 0.00 0.00 74 1011.4
20260509145539 60 272 0.9 2.6 0.00 0.00 0.00 74 1011.4
20260509145037 59 251 0.9 3.5 0.00 0.00 0.00 75 1011.5
20260509144544 59 249 0.9 3.5 0.00 0.00 0.00 74 1011.5
20260509144035 59 259 0.9 3.5 0.00 0.00 0.00 75 1011.5
20260509143535 59 245 0.9 2.6 0.00 0.00 0.00 76 1011.4
20260509143035 59 139 0.0 1.7 0.00 0.00 0.00 77 1011.5